Starlink 6190

operational
NORAD ID: 56774 Int'l Des: 2023-078 Owner: SPXS Country: US Constellation: starlink
LEOCIRCULAR

Über Starlink 6190

Beschreibung wird geladen...

Live-Position

3D-Globus wird geladen...

Nächste Überflüge

Höhenverlauf

Altitude vs Time

uPlot chart will show altitude changes over time

Zweizeiliger Elementsatz

1 56774U 23078H 26034.50237759 -.00000600 00000-0 -42476-4 0 9997
2 56774 69.9997 90.7565 0003020 268.7005 91.3808 14.98333459147061
Epoch: 3. Feb. 2026 • Age: 6 hours

Aktueller Status

Höhe 577.4 km
Geschwindigkeit 7.57 km/s
Subsatellitenpunkt -16.28°S, 34.24°E
Startdatum 31. Mai 2023
Alter 2.6 years
Typ internet

Technische Details

Klassifizierung Payload
Masse 305.00 kg
Trockenmasse 290.00 kg
Gesamtmasse 305.00 kg
Länge 0.20 m
Durchmesser 2.80 m
Spannweite 9.00 m
Form Box + pan
Hersteller SPXS
Bus-Typ Starlink
Phasenstatus In Orbit
Besitzer/Staat SPXS/US

Große Konstellationen

Loading constellations...